SCP
0 0 0 -0 0 -0 0 0 0 0 -0 -0 -0 0 0 -0 0 0 0 -0 -0 -0 0 -0 0 0 0 0 0 0 0 0 0 0 0 0 0 0 0 0 0 0 0 0 0 0 0
0 0 0 0 0 -0 0 0 0 0 -0 -0 -0 -0 0 0 -0 0 0 0 -0 -0 0 0 0 0 -0 0 0 0 0 0 0 0 0 0 0 0 0 0 0 0 0 0 0 0 0
0 0 0 0 0 0 0 0 0 0 -0 -0 0 -0 0 0 0 0 0 0 -0 -0 -0 0 0 0 0 0 0 0 0 0 0 0 0 0 0 0 0 0 0 0 0 0 0 0 0
0 0 0 0 0 0 -0 0 0 0 0 -0 0 0 -0 0 0 -0 0 0 -0 -0 -0 0 0 0 -0 0 0 0 0 0 0 0 0 0 0 0 0 0 0 0 0 0 0 0 0
0 0 0 0 0 -0 -0 0 0 0 0 -0 0 0 0 0 0 -0 0 0 0 -0 0 0 0 0 -0 0 0 0 0 0 0 0 0 0 0 0 0 0 0 0 0 0 0 0 0
0 0 0 0 0 -0 -0 0 0 0 0 0 0 0 0 0 0 0 0 0 0 0 0 0 0 0 0 0 0 0 0 0 0 0 0 0 0 0 0 0 0 0 0 0 0 0 0
0 0 0 0 0 0 -0 -0 0 0 0 0 0 0 0 0 0 0 0 0 0 0 0 0 0 0 0 0 0 0 0 0 0 0 0 0 0 0 0 0 0 0 0 0 0 0 0
0 0 0 0 0 0 -0 -0 0 0 0 0 0 0 0 0 0 0 0 0 0 0 0 0 0 0 0 0 0 0 0 0 0 0 0 0 0 0 0 0 0 0 0 0 0 0 0
0 0 0 0 0 -0 -0 -0 -0 0 0 0 0 0 0 0 0 0 0 0 0 0 0 0 0 0 0 0 0 0 0 0 0 0 0 0 0 0 0 0 0 0 0 0 0 0 0
0 0 0 0 0 0 -0 -0 -0 0 0 0 0 0 0 0 0 0 0 0 0 0 0 0 0 0 0 0 0 0 0 0 0 0 0 0 0 0 0 0 0 0 0 0 0 0 0
0 0 0 0 0 -0 -0 -0 -0 -0 0 0 0 0 0 0 0 0 0 0 0 0 0 0 0 0 0 0 0 0 0 0 0 0 0 0 0 0 0 0 0 0 0 0 0 0 0
0 0 0 0 0 -0 -0 -0 0 -0 0 0 0 0 0 0 0 0 0 0 0 0 0 0 0 0 0 0 0 0 0 0 0 0 0 0 0 0 0 0 0 0 0 0 0 0 0
0 0 0 0 0 -0 -0 0 -0 0 0 0 0 0 0 0 0 0 0 0 0 0 0 0 0 0 0 0 0 0 0 0 0 0 0 0 0 0 0 0 0 0 0 0 0 0 0
0 0 0 -0 0 -0 -0 -0 -0 0 0 0 0 0 0 0 0 0 0 0 0 0 0 0 0 0 0 0 0 0 0 0 0 0 0 0 0 0 0 0 0 0 0 0 0 0 0
0 0 -0 -0 -0 -0 -0 -0 -0 0 0 0 0 0 0 0 0 0 0 0 0 0 0 0 0 0 0 0 0 0 0 0 0 0 0 0 0 0 0 0 0 0 0 0 0 0 0
0 -0 -0 -0 -0 0 -0 -0 -0 -0 -0 0 0 0 0 0 0 0 0 0 0 0 0 0 0 0 0 0 0 0 0 0 0 0 0 0 0 0 0 0 0 0 0 0 0 0 0
0 -0 -0 -0 -0 -0 -0 0 -0 -0 0 0 0 0 0 0 0 0 0 0 0 0 0 0 0 0 0 0 0 0 0 0 0 0 0 0 0 0 0 0 0 0 0 0 0 0 0
-0 -0 -0 -0 0 -0 0 -0 -0 -0 0 0 0 0 0 0 0 0 0 0 0 0 0 0 0 0 0 0 0 0 0 0 0 0 0 0 0 0 0 0 0 0 0 0 0 0 0
-0 -0 -0 -0 0 -0 0 -0 -0 -0 0 0 0 0 0 0 0 0 0 0 -0 0 0 0 0 0 0 0 0 0 0 0 0 0 0 0 0 0 0 0 0 0 0 0 0 0 0
-0 -0 -0 -0 0 -0 -0 -0 -0 -0 -0 0 0 0 0 0 0 0 0 0 0 0 0 0 0 0 0 0 0 0 0 0 0 0 0 0 0 0 0 0 0 0 0 0 0 0 0
0 -0 -0 -0 0 -0 -0 -0 -0 -0 -0 0 0 0 0 0 0 0 0 0 0 0 0 0 0 0 0 0 0 0 0 0 0 0 0 0 0 0 0 0 0 0 0 0 0 0 0
0 -0 -0 -0 0 -0 -0 -0 -0 -0 -0 -0 0 0 0 0 0 0 0 0 0 0 0 0 0 0 0 0 0 0 0 0 0 0 0 0 0 0 0 0 0 0 0 0 0 0 0
0 0 -0 -0 -0 -0 -0 -0 -0 -0 0 0 0 0 0 0 0 0 0 0 0 0 0 0 0 0 0 -0 0 0 0 0 0 0 0 0 0 0 0 0 0 0 0 0 0 0 0
0 0 0 -0 -0 -0 -0 -0 0 0 0 0 0 0 0 0 0 0 0 0 0 0 0 0 0 0 0 0 0 0 0 0 0 0 0 0 0 0 0 0 0 0 0 0 0 0 0
0 0 0 0 -0 0 -0 -0 -0 0 0 0 0 0 -0 0 0 0 0 0 0 0 0 0 0 0 0 0 0 -0 -0 0 0 0 0 0 0 0 0 0 0 0 0 0 0 0 0
0 0 0 0 -0 0 0 0 0 0 0 0 0 0 0 -0 -0 0 0 0 0 0 0 0 0 0 0 0 0 -0 -0 0 0 0 0 0 0 0 0 0 0 0 0 0 0 0 0
-0 0 0 0 -0 0 0 0 0 0 0 -0 -0 0 0 -0 0 0 0 0 0 0 0 0 0 0 0 0 0 0 0 0 0 0 0 0 0 0 0 0 0 0 0 0 0 0 0
0 -0 -0 -0 -0 0 0 0 0 0 0 0 0 -0 0 0 0 0 0 0 0 0 0 0 0 0 0 0 0 0 0 0 0 0 0 0 0 0 0 0 0 0 0 0 0 0 0
0 -0 -0 -0 -0 -0 0 0 0 0 0 0 0 0 0 0 0 0 0 0 0 0 0 0 0 0 0 0 0 0 0 0 0 0 0 0 0 0 0 0 -0 0 0 0 0 0 0
Wind_Speed_500mb
34 39 40 44 47 48 46 47 48 39 34 27 30 23 25 31 34 47 30 28 29 49 60 34 24 14 12 8 17 8 27 34 34 35 40 21 17 9 9 11 10 9 8 12 14 18 21
42 43 48 46 46 53 50 46 44 40 31 27 27 23 25 24 18 32 28 39 36 49 62 78 57 40 28 18 6 9 16 25 34 34 31 30 15 12 12 9 8 11 23 20 10 16 13
46 47 52 52 50 56 56 47 45 43 32 29 26 24 35 26 19 22 18 23 39 37 59 69 72 63 30 27 11 3 19 15 25 24 25 36 19 17 18 10 12 26 11 9 6 7 5
45 52 52 51 51 50 51 48 42 44 37 34 27 29 32 20 21 23 14 12 41 42 42 37 47 31 25 34 29 27 8 15 25 24 30 31 27 20 13 25 9 9 9 8 2 12 2
48 51 54 54 51 51 50 47 43 42 38 34 29 25 27 16 19 20 11 24 40 44 48 40 39 25 11 33 37 25 17 8 13 21 21 32 24 12 16 13 8 1 9 8 5 5 5
48 52 54 53 53 53 46 44 44 39 40 33 29 25 22 14 18 16 9 7 44 34 49 56 47 27 20 26 49 45 23 16 13 21 23 19 9 8 5 7 12 12 9 9 11 9 5
47 53 56 59 57 53 50 48 44 40 38 32 28 26 19 15 16 12 9 26 34 20 24 14 36 5 35 26 35 38 38 16 18 18 10 10 8 13 17 15 8 14 10 13 3 4 7
48 54 59 61 56 53 50 46 44 42 36 32 24 23 18 14 10 6 8 5 7 21 21 29 33 44 50 47 19 34 48 9 12 10 10 8 7 14 17 13 7 7 8 8 7 2 5
47 55 61 62 58 55 51 49 44 39 37 33 23 20 13 12 10 8 13 8 36 32 13 7 32 26 33 34 15 42 52 24 8 8 7 11 7 15 11 10 13 7 11 11 12 8 2
50 56 62 61 61 59 54 52 44 39 37 34 23 19 11 11 9 12 18 23 26 24 8 14 15 15 30 25 8 38 45 20 8 17 10 5 8 17 11 9 13 9 8 16 18 8 6
50 59 63 60 65 65 58 47 43 40 38 33 21 18 10 18 3 21 16 26 25 20 10 23 16 27 46 28 37 27 46 24 14 15 6 9 5 14 10 12 11 8 20 15 9 10 7
51 58 62 61 67 71 57 36 38 40 39 32 22 18 14 19 6 14 35 32 19 5 7 10 19 25 31 21 12 33 32 12 5 9 12 2 1 6 2 8 13 13 23 19 12 7 2
54 56 61 60 65 66 46 9 31 39 38 32 23 20 16 16 9 36 33 23 6 4 3 10 12 25 28 17 18 25 28 11 12 13 5 7 8 6 4 18 9 13 12 6 6 4 11
56 53 57 54 58 55 36 28 37 39 36 28 24 21 18 9 15 48 38 5 4 3 4 4 9 34 13 25 11 26 29 21 10 11 10 9 1 7 3 8 15 17 11 11 15 9 8
57 51 51 46 45 50 29 30 36 40 33 29 33 25 15 18 15 17 9 3 4 5 3 12 25 18 8 20 13 20 29 24 12 12 12 10 4 1 7 5 14 10 7 5 11 5 6
54 46 46 37 33 32 18 32 29 30 31 37 40 29 17 26 19 9 9 5 6 6 12 4 5 3 14 21 12 17 27 16 9 12 3 8 11 1 2 5 2 8 13 6 6 7 7
48 38 40 30 26 20 19 22 22 27 36 39 34 12 11 18 17 3 5 6 4 2 10 12 4 5 8 14 11 17 31 8 21 14 11 11 8 7 8 9 13 6 5 7 7 8 10
40 28 32 27 22 16 9 14 18 34 41 35 15 5 13 21 8 2 3 4 5 5 10 8 5 6 7 13 9 10 21 10 41 21 14 7 10 8 8 0 2 3 11 10 8 8 5
26 22 27 25 20 16 10 12 20 33 36 26 13 8 9 3 5 1 4 7 6 4 5 4 2 6 1 7 5 9 14 19 47 17 16 11 4 11 6 10 4 8 8 8 7 5 10
14 17 21 20 18 13 13 13 21 30 32 22 10 5 3 4 2 6 6 3 4 5 4 2 4 4 6 4 7 7 15 4 40 27 8 11 7 11 17 11 13 13 21 14 13 6 8
9 11 14 14 16 11 8 10 21 29 31 18 8 4 5 5 4 4 9 5 3 2 2 1 4 2 6 3 3 2 4 10 7 30 6 6 7 5 4 10 9 13 25 36 33 23 14
6 9 9 10 11 13 7 7 24 25 31 18 11 9 9 5 14 7 10 8 9 2 3 3 3 13 6 11 7 9 2 5 8 6 8 3 3 5 5 5 3 8 28 33 39 29 24
6 6 8 9 9 7 7 5 24 16 28 13 11 13 7 6 6 7 6 6 11 11 14 14 13 7 3 5 15 16 20 21 11 17 21 8 10 5 8 6 6 15 16 21 17 24 26
7 5 4 6 8 10 4 2 7 22 29 14 21 17 9 7 6 9 5 15 12 14 11 14 11 7 13 26 23 9 11 5 19 9 25 17 10 5 6 6 11 9 2 21 31 21 33
10 9 6 5 5 8 10 3 11 13 18 28 27 12 6 4 15 1 12 7 10 28 8 16 14 13 30 19 7 3 3 6 5 6 17 7 9 7 11 6 11 8 10 14 16 26 34
18 13 12 8 6 8 7 9 7 17 16 21 22 23 18 6 12 30 11 22 8 4 7 3 16 10 31 4 4 9 6 7 6 7 1 13 7 6 7 10 16 11 4 13 10 17 19
19 21 18 15 11 11 12 8 7 6 14 21 24 26 27 14 30 18 6 14 21 12 7 6 10 9 6 3 4 5 8 6 9 12 13 11 7 18 11 6 14 14 9 11 10 12 3
18 21 24 21 18 15 17 16 9 6 7 16 22 23 35 16 31 28 44 18 27 29 9 14 9 2 7 9 7 7 6 9 6 7 11 18 13 11 6 4 16 15 11 17 7 1 1
30 21 25 27 23 20 19 20 15 15 20 25 32 24 28 38 15 38 55 45 42 50 41 38 14 17 23 6 6 4 3 4 4 7 4 8 10 11 16 13 12 40 19 39 4 2 3
Wind_Direction_500mb
328 333 321 315 319 321 320 316 314 316 320 307 321 309 310 291 279 278 295 198 190 200 215 221 233 189 334 10 74 90 189 198 193 219 215 216 189 196 172 153 126 97 128 77 106 83 68
320 322 316 311 313 311 309 313 315 308 299 296 309 321 312 298 297 278 268 185 189 193 207 227 230 259 289 314 29 117 157 170 192 202 217 209 198 185 121 105 97 121 115 121 95 88 80
326 319 314 313 309 307 305 301 306 311 287 295 283 308 316 273 287 278 277 191 184 184 196 214 245 248 279 262 297 207 135 138 161 172 198 205 187 176 138 102 119 133 93 92 127 143 99
328 326 321 318 312 308 305 302 293 301 299 283 299 289 313 257 264 290 275 197 181 188 186 188 206 205 216 252 253 266 209 167 167 164 192 189 175 141 123 125 68 101 82 122 206 147 152
327 325 322 321 317 308 304 295 297 287 298 284 286 295 310 266 271 303 255 184 176 187 183 170 160 162 173 199 215 243 209 168 163 180 163 155 145 125 129 115 60 209 163 154 187 192 135
324 326 323 323 317 310 305 299 288 283 286 292 274 293 295 259 289 299 254 344 167 168 143 166 156 118 174 182 180 215 187 198 199 170 141 155 137 108 89 111 181 175 161 151 168 210 152
328 328 327 323 320 313 304 293 285 279 272 283 272 275 282 273 266 283 242 131 148 128 147 143 149 35 158 159 164 169 171 220 212 184 158 185 115 173 181 190 147 133 140 119 56 334 132
334 334 327 326 322 315 305 292 280 269 262 267 265 264 265 270 230 262 228 312 64 134 99 100 101 117 132 145 132 168 164 206 186 192 147 78 188 208 182 197 134 105 123 94 58 126 125
340 332 329 328 327 320 307 293 275 259 249 250 246 251 253 244 218 194 136 156 128 126 87 100 154 136 148 163 123 164 165 169 270 214 163 146 187 203 177 169 142 161 163 156 144 176 126
340 335 334 332 331 323 309 291 270 247 235 234 231 234 229 201 208 231 154 155 142 122 111 150 175 175 155 138 115 178 175 147 196 221 164 142 297 158 143 173 138 165 153 119 124 105 219
343 338 338 338 335 329 316 290 260 232 217 215 215 216 192 179 183 179 167 176 164 156 152 155 164 172 163 158 145 178 182 220 176 166 153 216 160 128 127 168 129 174 120 117 105 91 82
343 341 344 343 341 338 327 292 236 209 198 194 196 190 184 183 199 207 145 161 143 98 182 165 152 167 161 173 156 147 184 187 226 84 45 100 30 51 102 51 113 129 81 49 48 74 300
343 344 350 351 351 352 351 313 189 182 175 174 177 167 163 180 191 146 156 139 95 207 329 160 164 158 158 154 154 158 166 173 173 122 116 31 2 334 82 85 35 98 84 36 9 351 227
345 349 353 358 359 4 28 87 135 151 154 160 153 150 168 175 154 153 155 87 150 166 203 266 152 149 167 146 155 165 162 175 231 109 127 140 290 201 146 151 166 170 162 158 196 194 216
344 351 356 4 9 16 59 86 119 137 147 147 142 142 141 134 141 188 98 144 23 56 178 178 136 151 143 155 131 158 179 186 200 168 134 132 18 341 96 84 154 222 178 148 104 31 70
344 350 356 6 20 26 69 100 121 136 139 144 134 116 102 153 129 119 83 40 20 339 323 333 110 195 164 161 122 167 166 197 216 188 156 149 115 219 31 77 83 146 158 69 349 128 247
345 351 358 10 25 33 80 104 121 135 136 141 127 89 79 159 157 0 133 163 133 344 2 18 97 123 145 150 126 163 176 204 180 182 116 131 114 168 109 204 173 151 188 191 133 155 170
344 356 0 16 29 37 82 123 129 143 149 153 101 72 129 160 57 79 91 160 167 76 38 29 77 67 63 167 134 148 183 196 188 143 165 198 122 148 179 351 170 222 197 155 137 223 225
348 4 6 22 32 48 76 132 147 155 158 158 88 83 155 131 116 328 356 295 55 126 111 189 69 54 90 32 140 169 178 217 175 151 167 181 132 113 143 354 356 217 220 200 124 98 204
5 16 19 23 38 57 82 126 163 165 169 172 123 99 64 120 142 148 161 219 171 161 120 185 100 113 120 82 27 267 169 49 176 167 141 131 155 152 178 194 150 191 206 201 181 143 168
23 21 23 20 35 60 81 139 172 176 182 175 60 106 173 178 234 282 161 231 120 59 203 82 74 53 170 99 265 276 86 115 95 161 103 112 168 134 33 137 139 179 188 198 209 205 188
19 15 16 3 11 37 68 125 175 195 186 181 138 149 162 152 164 164 209 231 183 91 167 91 190 163 216 147 222 168 342 109 172 128 146 113 216 122 357 355 102 218 210 206 215 218 236
323 4 18 4 6 7 50 89 190 197 189 198 166 142 150 191 167 118 238 201 185 161 209 183 200 122 193 180 108 115 113 329 191 165 179 176 144 105 233 360 43 290 205 198 211 214 212
275 303 355 354 351 7 2 173 167 201 207 199 193 176 146 238 141 193 211 187 195 203 162 199 212 164 154 133 98 81 73 27 325 208 186 177 118 89 141 42 252 265 209 207 211 215 221
260 263 274 309 312 343 2 264 221 209 215 218 216 193 227 217 205 218 222 231 227 224 199 175 201 202 170 145 91 316 29 23 224 240 204 165 131 125 146 191 301 271 222 180 169 246 228
258 253 253 258 285 282 324 337 281 227 219 225 227 232 237 294 229 222 177 206 192 179 8 194 183 205 176 91 146 155 200 196 206 188 285 211 143 126 145 151 213 247 225 145 117 287 222
247 254 252 251 262 273 271 296 330 251 228 238 238 228 235 246 251 221 175 199 195 170 157 153 163 154 188 136 152 185 201 170 192 186 176 171 174 196 161 211 287 248 187 153 105 241 319
233 248 253 252 258 268 264 268 285 278 267 245 262 239 235 247 252 249 236 227 201 200 147 160 102 191 156 200 174 205 175 211 163 205 176 182 165 181 128 116 257 176 123 175 242 346 37
229 238 251 251 250 258 268 268 273 283 285 284 277 280 245 246 256 241 232 243 235 221 207 181 192 162 176 143 214 139 128 144 178 205 175 241 195 170 178 205 197 184 193 217 316 210 134
Wind_Speed_850mb
34 39 40 44 47 48 46 47 48 39 34 27 30 23 25 31 34 47 30 28 29 49 60 34 24 14 12 8 17 8 27 34 34 35 40 21 17 9 9 11 10 9 8 12 14 18 21
42 43 48 46 46 53 50 46 44 40 31 27 27 23 25 24 18 32 28 39 36 49 62 78 57 40 28 18 6 9 16 25 34 34 31 30 15 12 12 9 8 11 23 20 10 16 13
46 47 52 52 50 56 56 47 45 43 32 29 26 24 35 26 19 22 18 23 39 37 59 69 72 63 30 27 11 3 19 15 25 24 25 36 19 17 18 10 12 26 11 9 6 7 5
45 52 52 51 51 50 51 48 42 44 37 34 27 29 32 20 21 23 14 12 41 42 42 37 47 31 25 34 29 27 8 15 25 24 30 31 27 20 13 25 9 9 9 8 2 12 2
48 51 54 54 51 51 50 47 43 42 38 34 29 25 27 16 19 20 11 24 40 44 48 40 39 25 11 33 37 25 17 8 13 21 21 32 24 12 16 13 8 1 9 8 5 5 5
48 52 54 53 53 53 46 44 44 39 40 33 29 25 22 14 18 16 9 7 44 34 49 56 47 27 20 26 49 45 23 16 13 21 23 19 9 8 5 7 12 12 9 9 11 9 5
47 53 56 59 57 53 50 48 44 40 38 32 28 26 19 15 16 12 9 26 34 20 24 14 36 5 35 26 35 38 38 16 18 18 10 10 8 13 17 15 8 14 10 13 3 4 7
48 54 59 61 56 53 50 46 44 42 36 32 24 23 18 14 10 6 8 5 7 21 21 29 33 44 50 47 19 34 48 9 12 10 10 8 7 14 17 13 7 7 8 8 7 2 5
47 55 61 62 58 55 51 49 44 39 37 33 23 20 13 12 10 8 13 8 36 32 13 7 32 26 33 34 15 42 52 24 8 8 7 11 7 15 11 10 13 7 11 11 12 8 2
50 56 62 61 61 59 54 52 44 39 37 34 23 19 11 11 9 12 18 23 26 24 8 14 15 15 30 25 8 38 45 20 8 17 10 5 8 17 11 9 13 9 8 16 18 8 6
50 59 63 60 65 65 58 47 43 40 38 33 21 18 10 18 3 21 16 26 25 20 10 23 16 27 46 28 37 27 46 24 14 15 6 9 5 14 10 12 11 8 20 15 9 10 7
51 58 62 61 67 71 57 36 38 40 39 32 22 18 14 19 6 14 35 32 19 5 7 10 19 25 31 21 12 33 32 12 5 9 12 2 1 6 2 8 13 13 23 19 12 7 2
54 56 61 60 65 66 46 9 31 39 38 32 23 20 16 16 9 36 33 23 6 4 3 10 12 25 28 17 18 25 28 11 12 13 5 7 8 6 4 18 9 13 12 6 6 4 11
56 53 57 54 58 55 36 28 37 39 36 28 24 21 18 9 15 48 38 5 4 3 4 4 9 34 13 25 11 26 29 21 10 11 10 9 1 7 3 8 15 17 11 11 15 9 8
57 51 51 46 45 50 29 30 36 40 33 29 33 25 15 18 15 17 9 3 4 5 3 12 25 18 8 20 13 20 29 24 12 12 12 10 4 1 7 5 14 10 7 5 11 5 6
54 46 46 37 33 32 18 32 29 30 31 37 40 29 17 26 19 9 9 5 6 6 12 4 5 3 14 21 12 17 27 16 9 12 3 8 11 1 2 5 2 8 13 6 6 7 7
48 38 40 30 26 20 19 22 22 27 36 39 34 12 11 18 17 3 5 6 4 2 10 12 4 5 8 14 11 17 31 8 21 14 11 11 8 7 8 9 13 6 5 7 7 8 10
40 28 32 27 22 16 9 14 18 34 41 35 15 5 13 21 8 2 3 4 5 5 10 8 5 6 7 13 9 10 21 10 41 21 14 7 10 8 8 0 2 3 11 10 8 8 5
26 22 27 25 20 16 10 12 20 33 36 26 13 8 9 3 5 1 4 7 6 4 5 4 2 6 1 7 5 9 14 19 47 17 16 11 4 11 6 10 4 8 8 8 7 5 10
14 17 21 20 18 13 13 13 21 30 32 22 10 5 3 4 2 6 6 3 4 5 4 2 4 4 6 4 7 7 15 4 40 27 8 11 7 11 17 11 13 13 21 14 13 6 8
9 11 14 14 16 11 8 10 21 29 31 18 8 4 5 5 4 4 9 5 3 2 2 1 4 2 6 3 3 2 4 10 7 30 6 6 7 5 4 10 9 13 25 36 33 23 14
6 9 9 10 11 13 7 7 24 25 31 18 11 9 9 5 14 7 10 8 9 2 3 3 3 13 6 11 7 9 2 5 8 6 8 3 3 5 5 5 3 8 28 33 39 29 24
6 6 8 9 9 7 7 5 24 16 28 13 11 13 7 6 6 7 6 6 11 11 14 14 13 7 3 5 15 16 20 21 11 17 21 8 10 5 8 6 6 15 16 21 17 24 26
7 5 4 6 8 10 4 2 7 22 29 14 21 17 9 7 6 9 5 15 12 14 11 14 11 7 13 26 23 9 11 5 19 9 25 17 10 5 6 6 11 9 2 21 31 21 33
10 9 6 5 5 8 10 3 11 13 18 28 27 12 6 4 15 1 12 7 10 28 8 16 14 13 30 19 7 3 3 6 5 6 17 7 9 7 11 6 11 8 10 14 16 26 34
18 13 12 8 6 8 7 9 7 17 16 21 22 23 18 6 12 30 11 22 8 4 7 3 16 10 31 4 4 9 6 7 6 7 1 13 7 6 7 10 16 11 4 13 10 17 19
19 21 18 15 11 11 12 8 7 6 14 21 24 26 27 14 30 18 6 14 21 12 7 6 10 9 6 3 4 5 8 6 9 12 13 11 7 18 11 6 14 14 9 11 10 12 3
18 21 24 21 18 15 17 16 9 6 7 16 22 23 35 16 31 28 44 18 27 29 9 14 9 2 7 9 7 7 6 9 6 7 11 18 13 11 6 4 16 15 11 17 7 1 1
30 21 25 27 23 20 19 20 15 15 20 25 32 24 28 38 15 38 55 45 42 50 41 38 14 17 23 6 6 4 3 4 4 7 4 8 10 11 16 13 12 40 19 39 4 2 3
Wind_Direction_850mb
328 333 321 315 319 321 320 316 314 316 320 307 321 309 310 291 279 278 295 198 190 200 215 221 233 189 334 10 74 90 189 198 193 219 215 216 189 196 172 153 126 97 128 77 106 83 68
320 322 316 311 313 311 309 313 315 308 299 296 309 321 312 298 297 278 268 185 189 193 207 227 230 259 289 314 29 117 157 170 192 202 217 209 198 185 121 105 97 121 115 121 95 88 80
326 319 314 313 309 307 305 301 306 311 287 295 283 308 316 273 287 278 277 191 184 184 196 214 245 248 279 262 297 207 135 138 161 172 198 205 187 176 138 102 119 133 93 92 127 143 99
328 326 321 318 312 308 305 302 293 301 299 283 299 289 313 257 264 290 275 197 181 188 186 188 206 205 216 252 253 266 209 167 167 164 192 189 175 141 123 125 68 101 82 122 206 147 152
327 325 322 321 317 308 304 295 297 287 298 284 286 295 310 266 271 303 255 184 176 187 183 170 160 162 173 199 215 243 209 168 163 180 163 155 145 125 129 115 60 209 163 154 187 192 135
324 326 323 323 317 310 305 299 288 283 286 292 274 293 295 259 289 299 254 344 167 168 143 166 156 118 174 182 180 215 187 198 199 170 141 155 137 108 89 111 181 175 161 151 168 210 152
328 328 327 323 320 313 304 293 285 279 272 283 272 275 282 273 266 283 242 131 148 128 147 143 149 35 158 159 164 169 171 220 212 184 158 185 115 173 181 190 147 133 140 119 56 334 132
334 334 327 326 322 315 305 292 280 269 262 267 265 264 265 270 230 262 228 312 64 134 99 100 101 117 132 145 132 168 164 206 186 192 147 78 188 208 182 197 134 105 123 94 58 126 125
340 332 329 328 327 320 307 293 275 259 249 250 246 251 253 244 218 194 136 156 128 126 87 100 154 136 148 163 123 164 165 169 270 214 163 146 187 203 177 169 142 161 163 156 144 176 126
340 335 334 332 331 323 309 291 270 247 235 234 231 234 229 201 208 231 154 155 142 122 111 150 175 175 155 138 115 178 175 147 196 221 164 142 297 158 143 173 138 165 153 119 124 105 219
343 338 338 338 335 329 316 290 260 232 217 215 215 216 192 179 183 179 167 176 164 156 152 155 164 172 163 158 145 178 182 220 176 166 153 216 160 128 127 168 129 174 120 117 105 91 82
343 341 344 343 341 338 327 292 236 209 198 194 196 190 184 183 199 207 145 161 143 98 182 165 152 167 161 173 156 147 184 187 226 84 45 100 30 51 102 51 113 129 81 49 48 74 300
343 344 350 351 351 352 351 313 189 182 175 174 177 167 163 180 191 146 156 139 95 207 329 160 164 158 158 154 154 158 166 173 173 122 116 31 2 334 82 85 35 98 84 36 9 351 227
345 349 353 358 359 4 28 87 135 151 154 160 153 150 168 175 154 153 155 87 150 166 203 266 152 149 167 146 155 165 162 175 231 109 127 140 290 201 146 151 166 170 162 158 196 194 216
344 351 356 4 9 16 59 86 119 137 147 147 142 142 141 134 141 188 98 144 23 56 178 178 136 151 143 155 131 158 179 186 200 168 134 132 18 341 96 84 154 222 178 148 104 31 70
344 350 356 6 20 26 69 100 121 136 139 144 134 116 102 153 129 119 83 40 20 339 323 333 110 195 164 161 122 167 166 197 216 188 156 149 115 219 31 77 83 146 158 69 349 128 247
345 351 358 10 25 33 80 104 121 135 136 141 127 89 79 159 157 0 133 163 133 344 2 18 97 123 145 150 126 163 176 204 180 182 116 131 114 168 109 204 173 151 188 191 133 155 170
344 356 0 16 29 37 82 123 129 143 149 153 101 72 129 160 57 79 91 160 167 76 38 29 77 67 63 167 134 148 183 196 188 143 165 198 122 148 179 351 170 222 197 155 137 223 225
348 4 6 22 32 48 76 132 147 155 158 158 88 83 155 131 116 328 356 295 55 126 111 189 69 54 90 32 140 169 178 217 175 151 167 181 132 113 143 354 356 217 220 200 124 98 204
5 16 19 23 38 57 82 126 163 165 169 172 123 99 64 120 142 148 161 219 171 161 120 185 100 113 120 82 27 267 169 49 176 167 141 131 155 152 178 194 150 191 206 201 181 143 168
23 21 23 20 35 60 81 139 172 176 182 175 60 106 173 178 234 282 161 231 120 59 203 82 74 53 170 99 265 276 86 115 95 161 103 112 168 134 33 137 139 179 188 198 209 205 188
19 15 16 3 11 37 68 125 175 195 186 181 138 149 162 152 164 164 209 231 183 91 167 91 190 163 216 147 222 168 342 109 172 128 146 113 216 122 357 355 102 218 210 206 215 218 236
323 4 18 4 6 7 50 89 190 197 189 198 166 142 150 191 167 118 238 201 185 161 209 183 200 122 193 180 108 115 113 329 191 165 179 176 144 105 233 360 43 290 205 198 211 214 212
275 303 355 354 351 7 2 173 167 201 207 199 193 176 146 238 141 193 211 187 195 203 162 199 212 164 154 133 98 81 73 27 325 208 186 177 118 89 141 42 252 265 209 207 211 215 221
260 263 274 309 312 343 2 264 221 209 215 218 216 193 227 217 205 218 222 231 227 224 199 175 201 202 170 145 91 316 29 23 224 240 204 165 131 125 146 191 301 271 222 180 169 246 228
258 253 253 258 285 282 324 337 281 227 219 225 227 232 237 294 229 222 177 206 192 179 8 194 183 205 176 91 146 155 200 196 206 188 285 211 143 126 145 151 213 247 225 145 117 287 222
247 254 252 251 262 273 271 296 330 251 228 238 238 228 235 246 251 221 175 199 195 170 157 153 163 154 188 136 152 185 201 170 192 186 176 171 174 196 161 211 287 248 187 153 105 241 319
233 248 253 252 258 268 264 268 285 278 267 245 262 239 235 247 252 249 236 227 201 200 147 160 102 191 156 200 174 205 175 211 163 205 176 182 165 181 128 116 257 176 123 175 242 346 37
229 238 251 251 250 258 268 268 273 283 285 284 277 280 245 246 256 241 232 243 235 221 207 181 192 162 176 143 214 139 128 144 178 205 175 241 195 170 178 205 197 184 193 217 316 210 134